STARLINK-1686, 46328

Orbit data source: Space-Track

STARLINK-1686, 46328 is a payload satellite owned by SpaceX/Seattle (US) in LEO that was launched on Thu, 03 Sep 2020 UTC via an FALCON 9 launch vehicle from the Air Force Eastern Test Range (AFETR). Payload-class satellites include a variety of spacecraft equipped with specific instruments for various scientific and technological missions. These include communications satellites like Starlink; space stations such as the ISS; scientific satellites like the Hubble; Earth observation satellites from companies like Planet Labs, Umbra, and HawkEye 360; GPS; miniature CubeSats for education and research; and military/defense satellites.

Loading next visibility...
Identifier
46328, 2020-062D
Orbit
LEO
Country
Flag of USUS
Related business
Manufacturer
SpaceX/Seattle
Mission
Operational Commercial Communications
Bus & Motor
STARLINK, Unknown motor
Mass
260 kg wet, ~248 kg dry
Launch date (UTC)
2020-09-03 (5 years ago)
Launch vehicle
FALCON 9
Launch site
Air Force Eastern Test Range (AFETR)
Object type
Payload
Rocket body
Debris
Shape & HBR
Box + 1 Pan, 10.1 m
Radar Cross Section
13.562 m², Large (>1 m²)

Expand to show TLE details & history
Last TLE update: 7 hours ago

TLE from 7 hours ago
0 STARLINK-1686
1 46328U 20062D   25287.00005787  .00069924  00000-0  42954-2 0  9990
2 46328  53.0540 295.1240 0001768  96.0777 130.6180 15.09451551  5654
Epoch: 2025-10-14T00:00Z
TLE epoch observation values (Epoch: 2025-10-14T00:00:04.999Z)
Latitude
-35.77937°
Longitude
124.92639°
Altitude
550.101 km
Speed
7.586 km/s
True Right ascension
09h 50m 58s
True Declination
-35° 36' 41"
Sunlit
Object was in daylight at epoch
Visualization orbit readout
Latitude
Unknown
Longitude
Unknown
Altitude
Unknown
Speed
Unknown
Apparent Right ascension
Unknown
Apparent Declination
Unknown
Sunlit
N/A
Visualization observer readout
Local Sidereal Time
01:24:59
Azimuth
Unknown
Elevation
Unknown
Doppler factor
Unknown
Orbital elements
Apogee altitude
539.369 km
Perigee altitude
536.923 km
Semi-major axis
6,916.283 km
Eccentricity
0.00018
Inclination
53.054°
RAAN
295.124°
Arg. of periapsis
96.0777°
True anomaly
130.63338°
Mean anomaly
130.618°
Eccentric anomaly
130.62569°
Mean motion
3.77341 °/min
Orbital period
95.4 mins
BSTAR
0.0042954
Loading maneuver chart data...
Computing Atmospheric mass density...
Loading historical data...
Loading historical data...
Loading historical data...
Loading historical data...
Loading historical data...
Loading historical data...
Loading historical data...

Documentation

Showing up to 5 results
|